Location: Martz Observatory
(42.0083°N, 79.0667°W)
Time: 10:24:16
(UTC-04:00)

ALOS 2 - Pass Details

Date: 26 May 2018
Orbit: 630 x 632 km, 97.9° (Epoch: 22 September)

Event Time Altitude Azimuth Distance (km) Brightness Sun altitude
Exits shadow 01:23:15 33° 291° (WNW) 1,071 3.8 -26.8°
Drops below altitude 10° 01:26:22 10° 330° (NNW) 2,018 5.9 -26.8°
Sets 01:28:43 0° 339° (NNW) 2,931 7.0 -26.8°
